Year,Month,Day,Hour,Minute,Value (Times are PST for temperature in C)
2012,04,14,00,00,4.90
2012,04,14,00,01,4.90
2012,04,14,00,02,4.90
2012,04,14,00,03,4.90
2012,04,14,00,04,4.90
2012,04,14,00,05,4.90
2012,04,14,00,06,4.90
2012,04,14,00,07,4.80
2012,04,14,00,08,4.80
2012,04,14,00,09,4.80
2012,04,14,00,10,4.80
2012,04,14,00,11,4.80
2012,04,14,00,12,4.80
2012,04,14,00,13,4.70
2012,04,14,00,14,4.70
2012,04,14,00,15,4.70
2012,04,14,00,16,4.70
2012,04,14,00,17,4.70
2012,04,14,00,18,4.70
2012,04,14,00,19,4.70
2012,04,14,00,20,4.70
2012,04,14,00,21,4.70
2012,04,14,00,22,4.70
2012,04,14,00,23,4.70
2012,04,14,00,24,4.70
2012,04,14,00,25,4.70
2012,04,14,00,26,4.70
2012,04,14,00,27,4.70
2012,04,14,00,28,4.70
2012,04,14,00,29,4.60
2012,04,14,00,30,4.60
2012,04,14,00,31,4.60
2012,04,14,00,32,4.60
2012,04,14,00,33,4.60
2012,04,14,00,34,4.60
2012,04,14,00,35,4.60
2012,04,14,00,36,4.50
2012,04,14,00,37,4.50
2012,04,14,00,38,4.50
2012,04,14,00,39,4.50
2012,04,14,00,40,4.40
2012,04,14,00,41,4.40
2012,04,14,00,42,4.40
2012,04,14,00,43,4.40
2012,04,14,00,44,4.40
2012,04,14,00,45,4.40
2012,04,14,00,46,4.40
2012,04,14,00,47,4.40
2012,04,14,00,48,4.40
2012,04,14,00,49,4.40
2012,04,14,00,50,4.40
2012,04,14,00,51,4.40
2012,04,14,00,52,4.40
2012,04,14,00,53,4.40
2012,04,14,00,54,4.30
2012,04,14,00,55,4.30
2012,04,14,00,56,4.30
2012,04,14,00,57,4.30
2012,04,14,00,58,4.30
2012,04,14,00,59,4.20
2012,04,14,01,00,4.20
2012,04,14,01,01,4.20
2012,04,14,01,02,4.20
2012,04,14,01,03,4.20
2012,04,14,01,04,4.20
2012,04,14,01,05,4.20
2012,04,14,01,06,4.10
2012,04,14,01,07,4.10
2012,04,14,01,08,4.10
2012,04,14,01,09,4.10
2012,04,14,01,10,4.10
2012,04,14,01,11,4.10
2012,04,14,01,12,4.00
2012,04,14,01,13,4.00
2012,04,14,01,14,4.00
2012,04,14,01,15,3.90
2012,04,14,01,16,3.90
2012,04,14,01,17,3.90
2012,04,14,01,18,3.90
2012,04,14,01,19,3.80
2012,04,14,01,20,3.80
2012,04,14,01,21,3.80
2012,04,14,01,22,3.80
2012,04,14,01,23,3.80
2012,04,14,01,24,3.80
2012,04,14,01,25,3.80
2012,04,14,01,26,3.80
2012,04,14,01,27,3.80
2012,04,14,01,28,3.80
2012,04,14,01,29,3.80
2012,04,14,01,30,3.80
2012,04,14,01,31,3.80
2012,04,14,01,32,3.80
2012,04,14,01,33,3.80
2012,04,14,01,34,3.80
2012,04,14,01,35,3.80
2012,04,14,01,36,3.80
2012,04,14,01,37,3.80
2012,04,14,01,38,3.80
2012,04,14,01,39,3.80
2012,04,14,01,40,3.80
2012,04,14,01,41,3.70
2012,04,14,01,42,3.70
2012,04,14,01,43,3.70
2012,04,14,01,44,3.70
2012,04,14,01,45,3.70
2012,04,14,01,46,3.70
2012,04,14,01,47,3.70
2012,04,14,01,48,3.70
2012,04,14,01,49,3.70
2012,04,14,01,50,3.70
2012,04,14,01,51,3.70
2012,04,14,01,52,3.70
2012,04,14,01,53,3.70
2012,04,14,01,54,3.70
2012,04,14,01,55,3.70
2012,04,14,01,56,3.70
2012,04,14,01,57,3.70
2012,04,14,01,58,3.70
2012,04,14,01,59,3.70
2012,04,14,02,00,3.70
2012,04,14,02,01,3.70
2012,04,14,02,02,3.60
2012,04,14,02,03,3.60
2012,04,14,02,04,3.60
2012,04,14,02,05,3.60
2012,04,14,02,06,3.60
2012,04,14,02,07,3.50
2012,04,14,02,08,3.50
2012,04,14,02,09,3.50
2012,04,14,02,10,3.50
2012,04,14,02,11,3.60
2012,04,14,02,12,3.60
2012,04,14,02,13,3.60
2012,04,14,02,14,3.60
2012,04,14,02,15,3.60
2012,04,14,02,16,3.60
2012,04,14,02,17,3.60
2012,04,14,02,18,3.60
2012,04,14,02,19,3.60
2012,04,14,02,20,3.60
2012,04,14,02,21,3.50
2012,04,14,02,22,3.40
2012,04,14,02,23,3.40
2012,04,14,02,24,3.30
2012,04,14,02,25,3.30
2012,04,14,02,26,3.30
2012,04,14,02,27,3.30
2012,04,14,02,28,3.30
2012,04,14,02,29,3.30
2012,04,14,02,30,3.30
2012,04,14,02,31,3.30
2012,04,14,02,32,3.30
2012,04,14,02,33,3.30
2012,04,14,02,34,3.30
2012,04,14,02,35,3.30
2012,04,14,02,36,3.30
2012,04,14,02,37,3.30
2012,04,14,02,38,3.30
2012,04,14,02,39,3.30
2012,04,14,02,40,3.30
2012,04,14,02,41,3.20
2012,04,14,02,42,3.20
2012,04,14,02,43,3.20
2012,04,14,02,44,3.20
2012,04,14,02,45,3.20
2012,04,14,02,46,3.20
2012,04,14,02,47,3.20
2012,04,14,02,48,3.20
2012,04,14,02,49,3.20
2012,04,14,02,50,3.20
2012,04,14,02,51,3.20
2012,04,14,02,52,3.10
2012,04,14,02,53,3.10
2012,04,14,02,54,3.10
2012,04,14,02,55,3.10
2012,04,14,02,56,3.10
2012,04,14,02,57,3.00
2012,04,14,02,58,3.00
2012,04,14,02,59,3.00
2012,04,14,03,00,2.90
2012,04,14,03,01,2.90
2012,04,14,03,02,2.90
2012,04,14,03,03,2.90
2012,04,14,03,04,2.90
2012,04,14,03,05,2.90
2012,04,14,03,06,2.90
2012,04,14,03,07,2.90
2012,04,14,03,08,2.90
2012,04,14,03,09,2.90
2012,04,14,03,10,2.90
2012,04,14,03,11,2.90
2012,04,14,03,12,2.90
2012,04,14,03,13,2.90
2012,04,14,03,14,2.90
2012,04,14,03,15,2.90
2012,04,14,03,16,2.80
2012,04,14,03,17,2.80
2012,04,14,03,18,2.80
2012,04,14,03,19,2.80
2012,04,14,03,20,2.80
2012,04,14,03,21,2.80
2012,04,14,03,22,2.80
2012,04,14,03,23,2.80
2012,04,14,03,24,2.80
2012,04,14,03,25,2.80
2012,04,14,03,26,2.80
2012,04,14,03,27,2.80
2012,04,14,03,28,2.70
2012,04,14,03,29,2.70
2012,04,14,03,30,2.70
2012,04,14,03,31,2.70
2012,04,14,03,32,2.70
2012,04,14,03,33,2.70
2012,04,14,03,34,2.70
2012,04,14,03,35,2.70
2012,04,14,03,36,2.70
2012,04,14,03,37,2.70
2012,04,14,03,38,2.70
2012,04,14,03,39,2.70
2012,04,14,03,40,2.70
2012,04,14,03,41,2.70
2012,04,14,03,42,2.70
2012,04,14,03,43,2.70
2012,04,14,03,44,2.60
2012,04,14,03,45,2.60
2012,04,14,03,46,2.60
2012,04,14,03,47,2.60
2012,04,14,03,48,2.60
2012,04,14,03,49,2.50
2012,04,14,03,50,2.50
2012,04,14,03,51,2.50
2012,04,14,03,52,2.40
2012,04,14,03,53,2.40
2012,04,14,03,54,2.40
2012,04,14,03,55,2.40
2012,04,14,03,56,2.30
2012,04,14,03,57,2.30
2012,04,14,03,58,2.30
2012,04,14,03,59,2.30
2012,04,14,04,00,2.30
2012,04,14,04,01,2.30
2012,04,14,04,02,2.40
2012,04,14,04,03,2.40
2012,04,14,04,04,2.50
2012,04,14,04,05,2.50
2012,04,14,04,06,2.60
2012,04,14,04,07,2.50
2012,04,14,04,08,2.50
2012,04,14,04,09,2.50
2012,04,14,04,10,2.50
2012,04,14,04,11,2.60
2012,04,14,04,12,2.60
2012,04,14,04,13,2.60
2012,04,14,04,14,2.60
2012,04,14,04,15,2.60
2012,04,14,04,16,2.60
2012,04,14,04,17,2.70
2012,04,14,04,18,2.70
2012,04,14,04,19,2.70
2012,04,14,04,20,2.70
2012,04,14,04,21,2.70
2012,04,14,04,22,2.70
2012,04,14,04,23,2.70
2012,04,14,04,24,2.60
2012,04,14,04,25,2.60
2012,04,14,04,26,2.60
2012,04,14,04,27,2.50
2012,04,14,04,28,2.50
2012,04,14,04,29,2.40
2012,04,14,04,30,2.40
2012,04,14,04,31,2.40
2012,04,14,04,32,2.40
2012,04,14,04,33,2.40
2012,04,14,04,34,2.40
2012,04,14,04,35,2.40
2012,04,14,04,36,2.40
2012,04,14,04,37,2.30
2012,04,14,04,38,2.30
2012,04,14,04,39,2.30
2012,04,14,04,40,2.30
2012,04,14,04,41,2.20
2012,04,14,04,42,2.20
2012,04,14,04,43,2.20
2012,04,14,04,44,2.20
2012,04,14,04,45,2.20
2012,04,14,04,46,2.20
2012,04,14,04,47,2.20
2012,04,14,04,48,2.20
2012,04,14,04,49,2.20
2012,04,14,04,50,2.20
2012,04,14,04,51,2.20
2012,04,14,04,52,2.20
2012,04,14,04,53,2.20
2012,04,14,04,54,2.20
2012,04,14,04,55,2.20
2012,04,14,04,56,2.20
2012,04,14,04,57,2.20
2012,04,14,04,58,2.10
2012,04,14,04,59,2.10
2012,04,14,05,00,2.10
2012,04,14,05,01,2.10
2012,04,14,05,02,2.10
2012,04,14,05,03,2.10
2012,04,14,05,04,2.10
2012,04,14,05,05,2.10
2012,04,14,05,06,2.20
2012,04,14,05,07,2.20
2012,04,14,05,08,2.20
2012,04,14,05,09,2.10
2012,04,14,05,10,2.10
2012,04,14,05,11,2.10
2012,04,14,05,12,2.10
2012,04,14,05,13,2.10
2012,04,14,05,14,2.10
2012,04,14,05,15,2.10
2012,04,14,05,16,2.10
2012,04,14,05,17,2.10
2012,04,14,05,18,2.10
2012,04,14,05,19,2.10
2012,04,14,05,20,2.20
2012,04,14,05,21,2.20
2012,04,14,05,22,2.20
2012,04,14,05,23,2.20
2012,04,14,05,24,2.20
2012,04,14,05,25,2.20
2012,04,14,05,26,2.10
2012,04,14,05,27,2.10
2012,04,14,05,28,2.10
2012,04,14,05,29,2.00
2012,04,14,05,30,2.00
2012,04,14,05,31,2.00
2012,04,14,05,32,1.90
2012,04,14,05,33,1.90
2012,04,14,05,34,1.90
2012,04,14,05,35,1.90
2012,04,14,05,36,1.90
2012,04,14,05,37,1.90
2012,04,14,05,38,1.80
2012,04,14,05,39,1.80
2012,04,14,05,40,1.80
2012,04,14,05,41,1.80
2012,04,14,05,42,1.80
2012,04,14,05,43,1.70
2012,04,14,05,44,1.70
2012,04,14,05,45,1.70
2012,04,14,05,46,1.70
2012,04,14,05,47,1.60
2012,04,14,05,48,1.60
2012,04,14,05,49,1.60
2012,04,14,05,50,1.60
2012,04,14,05,51,1.50
2012,04,14,05,52,1.50
2012,04,14,05,53,1.50
2012,04,14,05,54,1.50
2012,04,14,05,55,1.50
2012,04,14,05,56,1.50
2012,04,14,05,57,1.60
2012,04,14,05,58,1.60
2012,04,14,05,59,1.60
2012,04,14,06,00,1.60
2012,04,14,06,01,1.60
2012,04,14,06,02,1.70
2012,04,14,06,03,1.70
2012,04,14,06,04,1.70
2012,04,14,06,05,1.70
2012,04,14,06,06,1.70
2012,04,14,06,07,1.60
2012,04,14,06,08,1.60
2012,04,14,06,09,1.60
2012,04,14,06,10,1.60
2012,04,14,06,11,1.60
2012,04,14,06,12,1.50
2012,04,14,06,13,1.50
2012,04,14,06,14,1.50
2012,04,14,06,15,1.40
2012,04,14,06,16,1.40
2012,04,14,06,17,1.40
2012,04,14,06,18,1.40
2012,04,14,06,19,1.40
2012,04,14,06,20,1.40
2012,04,14,06,21,1.40
2012,04,14,06,22,1.40
2012,04,14,06,23,1.30
2012,04,14,06,24,1.30
2012,04,14,06,25,1.30
2012,04,14,06,26,1.30
2012,04,14,06,27,1.40
2012,04,14,06,28,1.40
2012,04,14,06,29,1.50
2012,04,14,06,30,1.50
2012,04,14,06,31,1.50
2012,04,14,06,32,1.50
2012,04,14,06,33,1.50
2012,04,14,06,34,1.50
2012,04,14,06,35,1.50
2012,04,14,06,36,1.50
2012,04,14,06,37,1.50
2012,04,14,06,38,1.50
2012,04,14,06,39,1.40
2012,04,14,06,40,1.40
2012,04,14,06,41,1.40
2012,04,14,06,42,1.40
2012,04,14,06,43,1.40
2012,04,14,06,44,1.40
2012,04,14,06,45,1.40
2012,04,14,06,46,1.40
2012,04,14,06,47,1.40
2012,04,14,06,48,1.40
2012,04,14,06,49,1.40
2012,04,14,06,50,1.40
2012,04,14,06,51,1.40
2012,04,14,06,52,1.40
2012,04,14,06,53,1.30
2012,04,14,06,54,1.40
2012,04,14,06,55,1.40
2012,04,14,06,56,1.40
2012,04,14,06,57,1.40
2012,04,14,06,58,1.50
2012,04,14,06,59,1.50
2012,04,14,07,00,1.50
2012,04,14,07,01,1.50
2012,04,14,07,02,1.60
2012,04,14,07,03,1.60
2012,04,14,07,04,1.60
2012,04,14,07,05,1.60
2012,04,14,07,06,1.60
2012,04,14,07,07,1.60
2012,04,14,07,08,1.60
2012,04,14,07,09,1.60
2012,04,14,07,10,1.70
2012,04,14,07,11,1.70
2012,04,14,07,12,1.70
2012,04,14,07,13,1.70
2012,04,14,07,14,1.70
2012,04,14,07,15,1.80
2012,04,14,07,16,1.80
2012,04,14,07,17,1.80
2012,04,14,07,18,1.80
2012,04,14,07,19,1.80
2012,04,14,07,20,1.90
2012,04,14,07,21,1.90
2012,04,14,07,22,1.90
2012,04,14,07,23,1.90
2012,04,14,07,24,2.00
2012,04,14,07,25,2.10
2012,04,14,07,26,2.20
2012,04,14,07,27,2.20
2012,04,14,07,28,2.20
2012,04,14,07,29,2.30
2012,04,14,07,30,2.30
2012,04,14,07,31,2.30
2012,04,14,07,32,2.40
2012,04,14,07,33,2.40
2012,04,14,07,34,2.50
2012,04,14,07,35,2.50
2012,04,14,07,36,2.60
2012,04,14,07,37,2.60
2012,04,14,07,38,2.70
2012,04,14,07,39,2.70
2012,04,14,07,40,2.80
2012,04,14,07,41,2.90
2012,04,14,07,42,2.90
2012,04,14,07,43,3.00
2012,04,14,07,44,3.10
2012,04,14,07,45,3.10
2012,04,14,07,46,3.20
2012,04,14,07,47,3.20
2012,04,14,07,48,3.20
2012,04,14,07,49,3.30
2012,04,14,07,50,3.30
2012,04,14,07,51,3.30
2012,04,14,07,52,3.40
2012,04,14,07,53,3.40
2012,04,14,07,54,3.50
2012,04,14,07,55,3.50
2012,04,14,07,56,3.60
2012,04,14,07,57,3.70
2012,04,14,07,58,3.80
2012,04,14,07,59,3.80
2012,04,14,08,00,3.90
2012,04,14,08,01,4.00
2012,04,14,08,02,4.10
2012,04,14,08,03,4.20
2012,04,14,08,04,4.30
2012,04,14,08,05,4.50
2012,04,14,08,06,4.60
2012,04,14,08,07,4.70
2012,04,14,08,08,4.80
2012,04,14,08,09,4.90
2012,04,14,08,10,5.00
2012,04,14,08,11,5.10
2012,04,14,08,12,5.30
2012,04,14,08,13,5.40
2012,04,14,08,14,5.50
2012,04,14,08,15,5.60
2012,04,14,08,16,5.60
2012,04,14,08,17,5.70
2012,04,14,08,18,5.80
2012,04,14,08,19,5.90
2012,04,14,08,20,5.90
2012,04,14,08,21,6.00
2012,04,14,08,22,6.10
2012,04,14,08,23,6.20
2012,04,14,08,24,6.30
2012,04,14,08,25,6.50
2012,04,14,08,26,6.60
2012,04,14,08,27,6.80
2012,04,14,08,28,7.00
2012,04,14,08,29,7.20
2012,04,14,08,30,7.40
2012,04,14,08,31,7.50
2012,04,14,08,32,7.60
2012,04,14,08,33,7.70
2012,04,14,08,34,7.80
2012,04,14,08,35,7.80
2012,04,14,08,36,7.90
2012,04,14,08,37,7.90
2012,04,14,08,38,8.00
2012,04,14,08,39,8.10
2012,04,14,08,40,8.30
2012,04,14,08,41,8.40
2012,04,14,08,42,8.50
2012,04,14,08,43,8.60
2012,04,14,08,44,8.70
2012,04,14,08,45,8.80
2012,04,14,08,46,8.90
2012,04,14,08,47,9.00
2012,04,14,08,48,9.10
2012,04,14,08,49,9.20
2012,04,14,08,50,9.30
2012,04,14,08,51,9.40
2012,04,14,08,52,9.50
2012,04,14,08,53,9.60
2012,04,14,08,54,9.60
2012,04,14,08,55,9.70
2012,04,14,08,56,9.70
2012,04,14,08,57,9.80
2012,04,14,08,58,9.80
2012,04,14,08,59,9.80
2012,04,14,09,00,9.90
2012,04,14,09,01,9.90
2012,04,14,09,02,9.90
2012,04,14,09,03,9.90
2012,04,14,09,04,9.90
2012,04,14,09,05,10.00
2012,04,14,09,06,10.00
2012,04,14,09,07,10.00
2012,04,14,09,08,10.10
2012,04,14,09,09,10.10
2012,04,14,09,10,10.10
2012,04,14,09,11,10.20
2012,04,14,09,12,10.20
2012,04,14,09,13,10.30
2012,04,14,09,14,10.30
2012,04,14,09,15,10.30
2012,04,14,09,16,10.30
2012,04,14,09,17,10.30
2012,04,14,09,18,10.30
2012,04,14,09,19,10.30
2012,04,14,09,20,10.30
2012,04,14,09,21,10.30
2012,04,14,09,22,10.20
2012,04,14,09,23,10.10
2012,04,14,09,24,10.00
2012,04,14,09,25,9.90
2012,04,14,09,26,9.80
2012,04,14,09,27,9.70
2012,04,14,09,28,9.70
2012,04,14,09,29,9.70
2012,04,14,09,30,9.70
2012,04,14,09,31,9.70
2012,04,14,09,32,9.70
2012,04,14,09,33,9.80
2012,04,14,09,34,9.80
2012,04,14,09,35,9.80
2012,04,14,09,36,9.90
2012,04,14,09,37,9.90
2012,04,14,09,38,10.00
2012,04,14,09,39,10.10
2012,04,14,09,40,10.20
2012,04,14,09,41,10.20
2012,04,14,09,42,10.30
2012,04,14,09,43,10.40
2012,04,14,09,44,10.40
2012,04,14,09,45,10.50
2012,04,14,09,46,10.50
2012,04,14,09,47,10.60
2012,04,14,09,48,10.60
2012,04,14,09,49,10.60
2012,04,14,09,50,10.60
2012,04,14,09,51,10.70
2012,04,14,09,52,10.70
2012,04,14,09,53,10.70
2012,04,14,09,54,10.80
2012,04,14,09,55,10.80
2012,04,14,09,56,10.80
2012,04,14,09,57,10.90
2012,04,14,09,58,11.00
2012,04,14,09,59,11.10
2012,04,14,10,00,11.10
2012,04,14,10,01,11.10
2012,04,14,10,02,11.10
2012,04,14,10,03,11.10
2012,04,14,10,04,11.10
2012,04,14,10,05,11.20
2012,04,14,10,06,11.10
2012,04,14,10,07,11.10
2012,04,14,10,08,11.20
2012,04,14,10,09,11.20
2012,04,14,10,10,11.20
2012,04,14,10,11,11.20
2012,04,14,10,12,11.30
2012,04,14,10,13,11.30
2012,04,14,10,14,11.50
2012,04,14,10,15,11.50
2012,04,14,10,16,11.50
2012,04,14,10,17,11.50
2012,04,14,10,18,11.50
2012,04,14,10,19,11.50
2012,04,14,10,20,11.50
2012,04,14,10,21,11.50
2012,04,14,10,22,11.50
2012,04,14,10,23,11.50
2012,04,14,10,24,11.50
2012,04,14,10,25,11.50
2012,04,14,10,26,11.40
2012,04,14,10,27,11.40
2012,04,14,10,28,11.40
2012,04,14,10,29,11.30
2012,04,14,10,30,11.30
2012,04,14,10,31,11.30
2012,04,14,10,32,11.30
2012,04,14,10,33,11.40
2012,04,14,10,34,11.40
2012,04,14,10,35,11.50
2012,04,14,10,36,11.50
2012,04,14,10,37,11.60
2012,04,14,10,38,11.70
2012,04,14,10,39,11.70
2012,04,14,10,40,11.70
2012,04,14,10,41,11.80
2012,04,14,10,42,11.80
2012,04,14,10,43,11.90
2012,04,14,10,44,12.00
2012,04,14,10,45,12.10
2012,04,14,10,46,12.00
2012,04,14,10,47,11.90
2012,04,14,10,48,11.90
2012,04,14,10,49,11.90
2012,04,14,10,50,12.00
2012,04,14,10,51,12.00
2012,04,14,10,52,12.10
2012,04,14,10,53,12.10
2012,04,14,10,54,12.20
2012,04,14,10,55,12.20
2012,04,14,10,56,12.20
2012,04,14,10,57,12.30
2012,04,14,10,58,12.30
2012,04,14,10,59,12.40
2012,04,14,11,00,12.40
2012,04,14,11,01,12.50
2012,04,14,11,02,12.50
2012,04,14,11,03,12.40
2012,04,14,11,04,12.50
2012,04,14,11,05,12.60
2012,04,14,11,06,12.60
2012,04,14,11,07,12.60
2012,04,14,11,08,12.60
2012,04,14,11,09,12.50
2012,04,14,11,10,12.40
2012,04,14,11,11,12.40
2012,04,14,11,12,12.40
2012,04,14,11,13,12.40
2012,04,14,11,14,12.30
2012,04,14,11,15,12.30
2012,04,14,11,16,12.30
2012,04,14,11,17,12.30
2012,04,14,11,18,12.30
2012,04,14,11,19,12.30
2012,04,14,11,20,12.40
2012,04,14,11,21,12.40
2012,04,14,11,22,12.40
2012,04,14,11,23,12.40
2012,04,14,11,24,12.50
2012,04,14,11,25,12.50
2012,04,14,11,26,12.60
2012,04,14,11,27,12.70
2012,04,14,11,28,12.80
2012,04,14,11,29,12.90
2012,04,14,11,30,12.90
2012,04,14,11,31,12.90
2012,04,14,11,32,12.80
2012,04,14,11,33,12.80
2012,04,14,11,34,12.80
2012,04,14,11,35,12.80
2012,04,14,11,36,12.90
2012,04,14,11,37,12.90
2012,04,14,11,38,12.90
2012,04,14,11,39,12.90
2012,04,14,11,40,12.90
2012,04,14,11,41,12.90
2012,04,14,11,42,12.90
2012,04,14,11,43,12.90
2012,04,14,11,44,12.90
2012,04,14,11,45,12.80
2012,04,14,11,46,12.70
2012,04,14,11,47,12.70
2012,04,14,11,48,12.70
2012,04,14,11,49,12.80
2012,04,14,11,50,12.80
2012,04,14,11,51,12.80
2012,04,14,11,52,12.90
2012,04,14,11,53,13.10
2012,04,14,11,54,13.10
2012,04,14,11,55,13.10
2012,04,14,11,56,13.20
2012,04,14,11,57,13.20
2012,04,14,11,58,13.30
2012,04,14,11,59,13.30
2012,04,14,12,00,13.20
2012,04,14,12,01,13.10
2012,04,14,12,02,13.10
2012,04,14,12,03,13.00
2012,04,14,12,04,12.90
2012,04,14,12,05,12.90
2012,04,14,12,06,12.90
2012,04,14,12,07,13.00
2012,04,14,12,08,13.10
2012,04,14,12,09,13.00
2012,04,14,12,10,13.00
2012,04,14,12,11,13.10
2012,04,14,12,12,13.20
2012,04,14,12,13,13.30
2012,04,14,12,14,13.30
2012,04,14,12,15,13.30
2012,04,14,12,16,13.40
2012,04,14,12,17,13.40
2012,04,14,12,18,13.40
2012,04,14,12,19,13.50
2012,04,14,12,20,13.50
2012,04,14,12,21,13.60
2012,04,14,12,22,13.60
2012,04,14,12,23,13.70
2012,04,14,12,24,13.60
2012,04,14,12,25,13.50
2012,04,14,12,26,13.50
2012,04,14,12,27,13.50
2012,04,14,12,28,13.50
2012,04,14,12,29,13.60
2012,04,14,12,30,13.80
2012,04,14,12,31,13.90
2012,04,14,12,32,14.00
2012,04,14,12,33,13.90
2012,04,14,12,34,13.90
2012,04,14,12,35,13.80
2012,04,14,12,36,13.70
2012,04,14,12,37,13.60
2012,04,14,12,38,13.60
2012,04,14,12,39,13.60
2012,04,14,12,40,13.60
2012,04,14,12,41,13.60
2012,04,14,12,42,13.60
2012,04,14,12,43,13.70
2012,04,14,12,44,13.70
2012,04,14,12,45,13.80
2012,04,14,12,46,13.80
2012,04,14,12,47,13.80
2012,04,14,12,48,13.80
2012,04,14,12,49,13.90
2012,04,14,12,50,13.90
2012,04,14,12,51,14.00
2012,04,14,12,52,14.00
2012,04,14,12,53,14.10
2012,04,14,12,54,14.10
2012,04,14,12,55,14.10
2012,04,14,12,56,14.10
2012,04,14,12,57,14.00
2012,04,14,12,58,13.90
2012,04,14,12,59,13.80
2012,04,14,13,00,13.90
2012,04,14,13,01,13.90
2012,04,14,13,02,13.80
2012,04,14,13,03,13.70
2012,04,14,13,04,13.70
2012,04,14,13,05,13.70
2012,04,14,13,06,13.80
2012,04,14,13,07,13.90
2012,04,14,13,08,14.00
2012,04,14,13,09,14.20
2012,04,14,13,10,14.40
2012,04,14,13,11,14.50
2012,04,14,13,12,14.50
2012,04,14,13,13,14.50
2012,04,14,13,14,14.50
2012,04,14,13,15,14.40
2012,04,14,13,16,14.40
2012,04,14,13,17,14.30
2012,04,14,13,18,14.30
2012,04,14,13,19,14.30
2012,04,14,13,20,14.40
2012,04,14,13,21,14.20
2012,04,14,13,22,14.20
2012,04,14,13,23,14.20
2012,04,14,13,24,14.20
2012,04,14,13,25,14.40
2012,04,14,13,26,14.40
2012,04,14,13,27,14.40
2012,04,14,13,28,14.30
2012,04,14,13,29,14.30
2012,04,14,13,30,14.40
2012,04,14,13,31,14.40
2012,04,14,13,32,14.30
2012,04,14,13,33,14.30
2012,04,14,13,34,14.30
2012,04,14,13,35,14.30
2012,04,14,13,36,14.20
2012,04,14,13,37,14.20
2012,04,14,13,38,14.30
2012,04,14,13,39,14.20
2012,04,14,13,40,14.20
2012,04,14,13,41,14.30
2012,04,14,13,42,14.30
2012,04,14,13,43,14.40
2012,04,14,13,44,14.50
2012,04,14,13,45,14.60
2012,04,14,13,46,14.60
2012,04,14,13,47,14.60
2012,04,14,13,48,14.70
2012,04,14,13,49,14.70
2012,04,14,13,50,14.60
2012,04,14,13,51,14.60
2012,04,14,13,52,14.70
2012,04,14,13,53,14.80
2012,04,14,13,54,14.80
2012,04,14,13,55,14.70
2012,04,14,13,56,14.80
2012,04,14,13,57,14.80
2012,04,14,13,58,14.90
2012,04,14,13,59,15.00
2012,04,14,14,00,15.00
2012,04,14,14,01,15.00
2012,04,14,14,02,15.00
2012,04,14,14,03,15.00
2012,04,14,14,04,15.00
2012,04,14,14,05,15.00
2012,04,14,14,06,15.00
2012,04,14,14,07,15.00
2012,04,14,14,08,15.00
2012,04,14,14,09,15.00
2012,04,14,14,10,14.90
2012,04,14,14,11,14.80
2012,04,14,14,12,14.70
2012,04,14,14,13,14.80
2012,04,14,14,14,14.90
2012,04,14,14,15,14.80
2012,04,14,14,16,14.80
2012,04,14,14,17,14.80
2012,04,14,14,18,14.80
2012,04,14,14,19,14.90
2012,04,14,14,20,15.00
2012,04,14,14,21,15.00
2012,04,14,14,22,14.90
2012,04,14,14,23,14.80
2012,04,14,14,24,14.90
2012,04,14,14,25,14.90
2012,04,14,14,26,15.00
2012,04,14,14,27,15.00
2012,04,14,14,28,15.00
2012,04,14,14,29,15.00
2012,04,14,14,30,15.00
2012,04,14,14,31,15.00
2012,04,14,14,32,14.90
2012,04,14,14,33,14.70
2012,04,14,14,34,14.60
2012,04,14,14,35,14.60
2012,04,14,14,36,14.70
2012,04,14,14,37,14.70
2012,04,14,14,38,14.70
2012,04,14,14,39,14.70
2012,04,14,14,40,14.70
2012,04,14,14,41,14.60
2012,04,14,14,42,14.70
2012,04,14,14,43,14.70
2012,04,14,14,44,14.70
2012,04,14,14,45,14.80
2012,04,14,14,46,14.90
2012,04,14,14,47,15.00
2012,04,14,14,48,15.00
2012,04,14,14,49,15.00
2012,04,14,14,50,15.00
2012,04,14,14,51,15.00
2012,04,14,14,52,15.00
2012,04,14,14,53,15.20
2012,04,14,14,54,15.30
2012,04,14,14,55,15.40
2012,04,14,14,56,15.30
2012,04,14,14,57,15.20
2012,04,14,14,58,15.20
2012,04,14,14,59,15.10
2012,04,14,15,00,15.00
2012,04,14,15,01,15.10
2012,04,14,15,02,15.20
2012,04,14,15,03,15.20
2012,04,14,15,04,15.30
2012,04,14,15,05,15.40
2012,04,14,15,06,15.40
2012,04,14,15,07,15.30
2012,04,14,15,08,15.40
2012,04,14,15,09,15.40
2012,04,14,15,10,15.40
2012,04,14,15,11,15.30
2012,04,14,15,12,15.20
2012,04,14,15,13,15.20
2012,04,14,15,14,15.10
2012,04,14,15,15,15.00
2012,04,14,15,16,15.00
2012,04,14,15,17,15.10
2012,04,14,15,18,15.20
2012,04,14,15,19,15.40
2012,04,14,15,20,15.30
2012,04,14,15,21,15.30
2012,04,14,15,22,15.20
2012,04,14,15,23,15.10
2012,04,14,15,24,15.10
2012,04,14,15,25,15.20
2012,04,14,15,26,15.00
2012,04,14,15,27,15.00
2012,04,14,15,28,15.10
2012,04,14,15,29,15.20
2012,04,14,15,30,15.30
2012,04,14,15,31,15.50
2012,04,14,15,32,15.70
2012,04,14,15,33,15.80
2012,04,14,15,34,15.80
2012,04,14,15,35,15.80
2012,04,14,15,36,15.70
2012,04,14,15,37,15.70
2012,04,14,15,38,15.60
2012,04,14,15,39,15.60
2012,04,14,15,40,15.50
2012,04,14,15,41,15.30
2012,04,14,15,42,15.20
2012,04,14,15,43,15.20
2012,04,14,15,44,15.10
2012,04,14,15,45,15.00
2012,04,14,15,46,14.90
2012,04,14,15,47,14.80
2012,04,14,15,48,14.70
2012,04,14,15,49,14.70
2012,04,14,15,50,14.70
2012,04,14,15,51,14.50
2012,04,14,15,52,14.40
2012,04,14,15,53,14.30
2012,04,14,15,54,14.30
2012,04,14,15,55,14.20
2012,04,14,15,56,14.20
2012,04,14,15,57,14.20
2012,04,14,15,58,14.20
2012,04,14,15,59,14.20
2012,04,14,16,00,14.20
2012,04,14,16,01,14.20
2012,04,14,16,02,14.10
2012,04,14,16,03,14.10
2012,04,14,16,04,14.10
2012,04,14,16,05,13.90
2012,04,14,16,06,13.90
2012,04,14,16,07,13.80
2012,04,14,16,08,13.80
2012,04,14,16,09,13.80
2012,04,14,16,10,13.90
2012,04,14,16,11,13.90
2012,04,14,16,12,13.90
2012,04,14,16,13,14.00
2012,04,14,16,14,14.10
2012,04,14,16,15,14.20
2012,04,14,16,16,14.10
2012,04,14,16,17,14.10
2012,04,14,16,18,14.00
2012,04,14,16,19,14.00
2012,04,14,16,20,14.00
2012,04,14,16,21,13.90
2012,04,14,16,22,13.90
2012,04,14,16,23,13.90
2012,04,14,16,24,14.00
2012,04,14,16,25,14.00
2012,04,14,16,26,14.10
2012,04,14,16,27,14.10
2012,04,14,16,28,14.20
2012,04,14,16,29,14.10
2012,04,14,16,30,14.10
2012,04,14,16,31,14.10
2012,04,14,16,32,14.20
2012,04,14,16,33,14.20
2012,04,14,16,34,14.40
2012,04,14,16,35,14.50
2012,04,14,16,36,14.50
2012,04,14,16,37,14.50
2012,04,14,16,38,14.50
2012,04,14,16,39,14.50
2012,04,14,16,40,14.50
2012,04,14,16,41,14.40
2012,04,14,16,42,14.50
2012,04,14,16,43,14.50
2012,04,14,16,44,14.50
2012,04,14,16,45,14.50
2012,04,14,16,46,14.50
2012,04,14,16,47,14.50
2012,04,14,16,48,14.50
2012,04,14,16,49,14.40
2012,04,14,16,50,14.50
2012,04,14,16,51,14.50
2012,04,14,16,52,14.50
2012,04,14,16,53,14.50
2012,04,14,16,54,14.40
2012,04,14,16,55,14.40
2012,04,14,16,56,14.50
2012,04,14,16,57,14.50
2012,04,14,16,58,14.40
2012,04,14,16,59,14.40
2012,04,14,17,00,14.40
2012,04,14,17,01,14.30
2012,04,14,17,02,14.30
2012,04,14,17,03,14.20
2012,04,14,17,04,14.10
2012,04,14,17,05,13.90
2012,04,14,17,06,13.90
2012,04,14,17,07,13.90
2012,04,14,17,08,13.90
2012,04,14,17,09,13.90
2012,04,14,17,10,13.90
2012,04,14,17,11,13.90
2012,04,14,17,12,13.90
2012,04,14,17,13,13.90
2012,04,14,17,14,13.90
2012,04,14,17,15,14.00
2012,04,14,17,16,14.00
2012,04,14,17,17,14.10
2012,04,14,17,18,14.10
2012,04,14,17,19,14.20
2012,04,14,17,20,14.10
2012,04,14,17,21,14.10
2012,04,14,17,22,14.10
2012,04,14,17,23,14.00
2012,04,14,17,24,14.00
2012,04,14,17,25,14.00
2012,04,14,17,26,13.90
2012,04,14,17,27,13.80
2012,04,14,17,28,13.70
2012,04,14,17,29,13.60
2012,04,14,17,30,13.50
2012,04,14,17,31,13.40
2012,04,14,17,32,13.40
2012,04,14,17,33,13.40
2012,04,14,17,34,13.30
2012,04,14,17,35,13.30
2012,04,14,17,36,13.30
2012,04,14,17,37,13.20
2012,04,14,17,38,13.20
2012,04,14,17,39,13.20
2012,04,14,17,40,13.20
2012,04,14,17,41,13.20
2012,04,14,17,42,13.10
2012,04,14,17,43,13.10